| time (UTC) | temp F | wind direction | speed MPH | gust MPH | rain 1hr in | rain 24hr in | rain mn in | humidity % | barometer mb |
| 20260508101824 | 41 | 65 | 0.0 | 0.0 | 0.00 | 0.02 | 0.00 | 80 | 1014.4 |
| 20260508100822 | 42 | 65 | 0.0 | 0.0 | 0.00 | 0.02 | 0.00 | 80 | 1014.3 |
| 20260508095845 | 42 | 65 | 0.0 | 0.0 | 0.00 | 0.02 | 0.00 | 79 | 1014.3 |
| 20260508094817 | 42 | 65 | 0.0 | 0.0 | 0.00 | 0.02 | 0.00 | 78 | 1014.2 |
| 20260508093829 | 43 | 65 | 0.0 | 0.0 | 0.00 | 0.02 | 0.00 | 77 | 1014.2 |
| 20260508092821 | 44 | 65 | 0.0 | 0.0 | 0.00 | 0.02 | 0.00 | 76 | 1014.1 |
| 20260508091833 | 45 | 65 | 0.0 | 0.0 | 0.00 | 0.02 | 0.00 | 72 | 1014.1 |
| 20260508090824 | 46 | 65 | 0.0 | 0.0 | 0.00 | 0.02 | 0.00 | 70 | 1014.0 |
| 20260508085831 | 47 | 65 | 0.0 | 0.0 | 0.00 | 0.02 | 0.00 | 69 | 1013.9 |
| 20260508084821 | 47 | 65 | 0.0 | 0.0 | 0.00 | 0.02 | 0.00 | 69 | 1014.0 |
| 20260508083854 | 47 | 65 | 0.0 | 0.0 | 0.00 | 0.02 | 0.00 | 68 | 1013.9 |
| 20260508082825 | 47 | 68 | 0.0 | 0.0 | 0.00 | 0.02 | 0.00 | 68 | 1013.9 |
| 20260508081816 | 47 | 360 | 0.0 | 0.0 | 0.00 | 0.02 | 0.00 | 68 | 1013.8 |
| 20260508080828 | 47 | 360 | 0.0 | 0.0 | 0.00 | 0.02 | 0.00 | 68 | 1013.8 |
| 20260508075824 | 48 | 360 | 0.0 | 0.0 | 0.00 | 0.03 | 0.00 | 67 | 1013.7 |
| 20260508074815 | 48 | 340 | 0.0 | 0.0 | 0.00 | 0.03 | 0.00 | 67 | 1013.5 |
| 20260508073827 | 48 | 350 | 0.0 | 2.0 | 0.00 | 0.03 | 0.00 | 66 | 1013.3 |
| 20260508072835 | 49 | 351 | 0.0 | 3.0 | 0.00 | 0.03 | 0.00 | 65 | 1013.2 |
| 20260508071827 | 49 | 360 | 1.0 | 6.0 | 0.00 | 0.03 | 0.00 | 64 | 1013.2 |
| 20260508070838 | 50 | 325 | 3.0 | 5.0 | 0.00 | 0.03 | 0.00 | 64 | 1013.0 |
| 20260508065844 | 50 | 52 | 5.0 | 10.0 | 0.00 | 0.06 | 0.00 | 63 | 1013.0 |
| 20260508064815 | 51 | 30 | 5.0 | 9.0 | 0.00 | 0.06 | 0.00 | 62 | 1013.0 |
| 20260508063843 | 51 | 25 | 6.0 | 13.0 | 0.00 | 0.06 | 0.00 | 61 | 1012.9 |
| 20260508062831 | 51 | 54 | 7.0 | 16.0 | 0.00 | 0.06 | 0.00 | 61 | 1012.8 |
| 20260508061822 | 52 | 38 | 6.0 | 12.0 | 0.00 | 0.06 | 0.00 | 61 | 1012.7 |
| 20260508060816 | 52 | 5 | 7.0 | 13.0 | 0.00 | 0.06 | 0.00 | 62 | 1012.6 |
| 20260508055819 | 52 | 88 | 7.0 | 14.0 | 0.00 | 0.07 | 0.00 | 63 | 1012.5 |
| 20260508054831 | 52 | 29 | 5.0 | 11.0 | 0.00 | 0.07 | 0.00 | 64 | 1012.4 |
| 20260508053823 | 51 | 26 | 6.0 | 10.0 | 0.00 | 0.07 | 0.00 | 68 | 1012.4 |
| 20260508052835 | 50 | 9 | 4.0 | 10.0 | 0.00 | 0.07 | 0.00 | 73 | 1012.1 |
| 20260508051818 | 49 | 42 | 2.0 | 4.0 | 0.00 | 0.07 | 0.00 | 81 | 1012.0 |
| 20260508050840 | 49 | 173 | 0.0 | 0.0 | 0.00 | 0.07 | 0.00 | 82 | 1011.8 |
| 20260508045844 | 49 | 173 | 0.0 | 0.0 | 0.00 | 0.09 | 0.00 | 82 | 1011.7 |
| 20260508044835 | 50 | 173 | 0.0 | 0.0 | 0.00 | 0.09 | 0.00 | 80 | 1011.5 |
| 20260508043825 | 51 | 173 | 0.0 | 0.0 | 0.00 | 0.09 | 0.00 | 80 | 1011.4 |
| 20260508042837 | 51 | 360 | 0.0 | 0.0 | 0.00 | 0.09 | 0.00 | 79 | 1011.3 |
| 20260508041820 | 52 | 173 | 0.0 | 0.0 | 0.00 | 0.09 | 0.00 | 79 | 1011.2 |
| 20260508040831 | 52 | 360 | 0.0 | 0.0 | 0.00 | 0.09 | 0.00 | 79 | 1011.2 |
| 20260508035816 | 52 | 171 | 0.0 | 1.0 | 0.00 | 0.11 | 0.09 | 78 | 1011.1 |
| 20260508034828 | 53 | 360 | 1.0 | 2.0 | 0.00 | 0.11 | 0.09 | 77 | 1011.1 |
| 20260508033820 | 53 | 169 | 2.0 | 4.0 | 0.00 | 0.11 | 0.09 | 77 | 1011.1 |
| 20260508032815 | 53 | 167 | 1.0 | 2.0 | 0.00 | 0.11 | 0.09 | 76 | 1011.0 |
| 20260508031827 | 53 | 167 | 0.0 | 2.0 | 0.00 | 0.11 | 0.09 | 76 | 1010.9 |
| 20260508030818 | 54 | 167 | 0.0 | 0.0 | 0.00 | 0.11 | 0.09 | 75 | 1011.0 |
| 20260508025820 | 54 | 167 | 1.0 | 4.0 | 0.00 | 0.11 | 0.09 | 75 | 1010.9 |
| 20260508024853 | 54 | 138 | 1.0 | 6.0 | 0.00 | 0.11 | 0.09 | 74 | 1011.0 |
| 20260508023825 | 54 | 225 | 2.0 | 3.0 | 0.00 | 0.11 | 0.09 | 74 | 1011.0 |
| 20260508022816 | 54 | 235 | 1.0 | 3.0 | 0.00 | 0.11 | 0.09 | 73 | 1011.0 |
| 20260508021829 | 55 | 257 | 1.0 | 5.0 | 0.00 | 0.11 | 0.09 | 73 | 1011.0 |
| 20260508020840 | 55 | 223 | 2.0 | 4.0 | 0.00 | 0.11 | 0.09 | 72 | 1011.0 |
| 20260508015823 | 55 | 211 | 1.0 | 4.0 | 0.00 | 0.13 | 0.09 | 72 | 1010.9 |
| 20260508014836 | 55 | 233 | 2.0 | 4.0 | 0.00 | 0.13 | 0.09 | 71 | 1010.7 |
| 20260508013826 | 55 | 233 | 2.0 | 4.0 | 0.00 | 0.13 | 0.09 | 71 | 1010.7 |
| 20260508012819 | 55 | 209 | 1.0 | 3.0 | 0.00 | 0.13 | 0.09 | 70 | 1010.6 |
| 20260508011829 | 56 | 195 | 1.0 | 4.0 | 0.00 | 0.13 | 0.09 | 70 | 1010.5 |
| 20260508010821 | 56 | 132 | 0.0 | 3.0 | 0.00 | 0.13 | 0.09 | 69 | 1010.4 |
| 20260508005828 | 56 | 115 | 0.0 | 0.0 | 0.00 | 0.13 | 0.09 | 68 | 1010.1 |
| 20260508004819 | 56 | 109 | 0.0 | 0.0 | 0.00 | 0.13 | 0.09 | 67 | 1010.0 |
| 20260508003830 | 57 | 98 | 0.0 | 0.0 | 0.00 | 0.13 | 0.09 | 63 | 1009.8 |
| 20260508002824 | 57 | 98 | 0.0 | 0.0 | 0.00 | 0.13 | 0.09 | 61 | 1009.6 |
| 20260508001832 | 58 | 78 | 0.0 | 0.0 | 0.00 | 0.13 | 0.09 | 55 | 1009.6 |
| 20260508000815 | 59 | 78 | 0.0 | 0.0 | 0.00 | 0.13 | 0.09 | 54 | 1009.5 |
| 20260507235827 | 59 | 78 | 0.0 | 0.0 | 0.00 | 0.13 | 0.09 | 53 | 1009.4 |
| 20260507234834 | 60 | 78 | 0.0 | 0.0 | 0.00 | 0.13 | 0.09 | 51 | 1009.3 |
| 20260507233820 | 61 | 78 | 0.0 | 0.0 | 0.00 | 0.13 | 0.09 | 48 | 1009.1 |
| 20260507232817 | 61 | 78 | 0.0 | 0.0 | 0.00 | 0.13 | 0.09 | 49 | 1009.1 |
| 20260507231830 | 62 | 78 | 0.0 | 0.0 | 0.00 | 0.13 | 0.09 | 52 | 1009.0 |
| 20260507230823 | 62 | 78 | 0.0 | 2.0 | 0.00 | 0.13 | 0.09 | 52 | 1008.9 |
| 20260507225830 | 62 | 78 | 1.0 | 4.0 | 0.00 | 0.13 | 0.09 | 52 | 1008.9 |
| 20260507224843 | 62 | 58 | 2.0 | 6.0 | 0.00 | 0.13 | 0.09 | 49 | 1008.9 |
| 20260507223813 | 63 | 33 | 2.0 | 4.0 | 0.00 | 0.13 | 0.09 | 45 | 1008.9 |
| 20260507222824 | 63 | 23 | 2.0 | 9.0 | 0.00 | 0.13 | 0.09 | 44 | 1008.7 |
| 20260507221832 | 64 | 5 | 2.0 | 6.0 | 0.00 | 0.13 | 0.09 | 45 | 1008.7 |
| 20260507220826 | 64 | 146 | 1.0 | 5.0 | 0.00 | 0.13 | 0.09 | 45 | 1008.7 |
| 20260507215815 | 63 | 15 | 2.0 | 9.0 | 0.00 | 0.13 | 0.09 | 46 | 1008.8 |
| 20260507214831 | 63 | 151 | 1.0 | 8.0 | 0.00 | 0.13 | 0.09 | 43 | 1008.8 |
| 20260507213823 | 63 | 46 | 4.0 | 8.0 | 0.00 | 0.13 | 0.09 | 43 | 1008.9 |
| 20260507212835 | 63 | 29 | 6.0 | 11.0 | 0.00 | 0.13 | 0.09 | 41 | 1008.9 |
| 20260507211825 | 63 | 5 | 1.0 | 10.0 | 0.00 | 0.13 | 0.09 | 45 | 1009.0 |
| 20260507210838 | 64 | 40 | 5.0 | 12.0 | 0.00 | 0.13 | 0.09 | 46 | 1009.1 |
| 20260507205822 | 64 | 30 | 6.0 | 10.0 | 0.00 | 0.13 | 0.09 | 48 | 1009.1 |
| 20260507204835 | 64 | 17 | 2.0 | 6.0 | 0.00 | 0.13 | 0.09 | 46 | 1008.9 |
| 20260507203818 | 63 | 34 | 3.0 | 9.0 | 0.00 | 0.13 | 0.09 | 45 | 1008.9 |
| 20260507202840 | 63 | 25 | 2.0 | 9.0 | 0.00 | 0.13 | 0.09 | 47 | 1008.9 |
| 20260507201823 | 63 | 225 | 4.0 | 8.0 | 0.00 | 0.13 | 0.09 | 48 | 1009.0 |
| 20260507200835 | 63 | 74 | 3.0 | 10.0 | 0.00 | 0.13 | 0.09 | 45 | 1009.0 |
| 20260507195845 | 62 | 34 | 5.0 | 12.0 | 0.00 | 0.13 | 0.09 | 47 | 1009.2 |
| 20260507194817 | 63 | 39 | 6.0 | 11.0 | 0.00 | 0.13 | 0.09 | 48 | 1009.3 |
| 20260507193832 | 62 | 170 | 4.0 | 11.0 | 0.00 | 0.13 | 0.09 | 53 | 1009.4 |
| 20260507192816 | 62 | 25 | 4.0 | 10.0 | 0.00 | 0.13 | 0.09 | 51 | 1009.6 |
| 20260507191829 | 62 | 39 | 5.0 | 11.0 | 0.00 | 0.13 | 0.09 | 51 | 1009.7 |
| 20260507190821 | 62 | 17 | 5.0 | 10.0 | 0.00 | 0.13 | 0.09 | 47 | 1009.8 |
| 20260507185827 | 62 | 86 | 2.0 | 10.0 | 0.00 | 0.14 | 0.09 | 50 | 1009.9 |
| 20260507184821 | 61 | 311 | 2.0 | 14.0 | 0.00 | 0.14 | 0.09 | 55 | 1009.9 |
| 20260507183816 | 61 | 11 | 8.0 | 13.0 | 0.00 | 0.14 | 0.09 | 51 | 1010.1 |
| 20260507182830 | 60 | 100 | 2.0 | 8.0 | 0.00 | 0.14 | 0.09 | 50 | 1010.2 |
| 20260507181825 | 60 | 360 | 6.0 | 10.0 | 0.00 | 0.14 | 0.09 | 52 | 1010.4 |
| 20260507180839 | 60 | 335 | 6.0 | 12.0 | 0.00 | 0.14 | 0.09 | 55 | 1010.6 |
| 20260507175823 | 60 | 12 | 3.0 | 11.0 | 0.00 | 0.14 | 0.09 | 55 | 1010.7 |
| 20260507174835 | 59 | 43 | 7.0 | 12.0 | 0.00 | 0.14 | 0.09 | 54 | 1010.7 |
| 20260507173828 | 59 | 346 | 5.0 | 9.0 | 0.00 | 0.14 | 0.09 | 56 | 1010.7 |
| 20260507172839 | 59 | 38 | 5.0 | 11.0 | 0.00 | 0.14 | 0.09 | 54 | 1010.8 |
| 20260507171821 | 58 | 37 | 8.0 | 14.0 | 0.00 | 0.14 | 0.09 | 55 | 1010.9 |
| 20260507170815 | 58 | 39 | 6.0 | 13.0 | 0.00 | 0.14 | 0.09 | 53 | 1011.0 |
| 20260507165820 | 58 | 5 | 5.0 | 13.0 | 0.00 | 0.14 | 0.09 | 53 | 1011.3 |
| 20260507164832 | 58 | 74 | 7.0 | 14.0 | 0.00 | 0.14 | 0.09 | 57 | 1011.3 |
| 20260507163824 | 58 | 32 | 6.0 | 12.0 | 0.00 | 0.14 | 0.09 | 56 | 1011.7 |
| 20260507162817 | 57 | 15 | 4.0 | 10.0 | 0.00 | 0.14 | 0.09 | 55 | 1011.8 |
| 20260507161830 | 57 | 355 | 5.0 | 14.0 | 0.00 | 0.14 | 0.09 | 53 | 1011.8 |
| 20260507160842 | 56 | 342 | 3.0 | 12.0 | 0.00 | 0.14 | 0.09 | 57 | 1011.8 |
| 20260507155824 | 57 | 26 | 7.0 | 13.0 | 0.00 | 0.19 | 0.09 | 60 | 1012.0 |
| 20260507154817 | 56 | 346 | 4.0 | 10.0 | 0.00 | 0.19 | 0.09 | 56 | 1012.1 |
| 20260507153851 | 56 | 22 | 8.0 | 13.0 | 0.00 | 0.19 | 0.09 | 61 | 1012.0 |
| 20260507152823 | 55 | 40 | 7.0 | 12.0 | 0.00 | 0.19 | 0.09 | 61 | 1012.1 |
| 20260507151817 | 55 | 36 | 6.0 | 15.0 | 0.00 | 0.19 | 0.09 | 59 | 1012.4 |
| 20260507150830 | 55 | 48 | 8.0 | 19.0 | 0.00 | 0.19 | 0.09 | 57 | 1012.6 |
| 20260507145818 | 54 | 34 | 7.0 | 15.0 | 0.00 | 0.25 | 0.09 | 67 | 1012.5 |
| 20260507144832 | 53 | 37 | 5.0 | 12.0 | 0.00 | 0.25 | 0.09 | 66 | 1012.4 |
| 20260507143825 | 52 | 16 | 3.0 | 6.0 | 0.00 | 0.25 | 0.09 | 66 | 1012.7 |
| 20260507142813 | 53 | 51 | 5.0 | 9.0 | 0.00 | 0.25 | 0.09 | 66 | 1013.0 |
| 20260507141830 | 53 | 321 | 5.0 | 11.0 | 0.00 | 0.25 | 0.09 | 65 | 1013.0 |
| 20260507140822 | 52 | 288 | 4.0 | 10.0 | 0.00 | 0.25 | 0.09 | 67 | 1013.1 |
| 20260507135855 | 52 | 36 | 6.0 | 12.0 | 0.00 | 0.32 | 0.09 | 65 | 1013.1 |
| 20260507134817 | 52 | 349 | 3.0 | 11.0 | 0.00 | 0.32 | 0.09 | 69 | 1013.2 |
| 20260507133839 | 52 | 19 | 6.0 | 12.0 | 0.00 | 0.32 | 0.09 | 70 | 1013.3 |
| 20260507132823 | 51 | 50 | 5.0 | 8.0 | 0.00 | 0.32 | 0.09 | 71 | 1013.3 |
| 20260507131814 | 51 | 47 | 4.0 | 12.0 | 0.00 | 0.32 | 0.09 | 70 | 1013.2 |
| 20260507130827 | 51 | 28 | 6.0 | 10.0 | 0.00 | 0.32 | 0.09 | 71 | 1013.2 |
| 20260507125815 | 50 | 35 | 4.0 | 12.0 | 0.00 | 0.33 | 0.09 | 72 | 1013.2 |
| 20260507124829 | 50 | 42 | 5.0 | 10.0 | 0.00 | 0.33 | 0.09 | 71 | 1013.1 |
| 20260507123821 | 50 | 9 | 3.0 | 9.0 | 0.00 | 0.33 | 0.09 | 74 | 1013.1 |
| 20260507122835 | 50 | 21 | 4.0 | 11.0 | 0.00 | 0.33 | 0.09 | 73 | 1013.0 |
| 20260507121831 | 50 | 344 | 5.0 | 10.0 | 0.00 | 0.33 | 0.09 | 72 | 1013.0 |
| 20260507120817 | 49 | 344 | 4.0 | 9.0 | 0.00 | 0.33 | 0.09 | 72 | 1013.1 |
| 20260507115833 | 49 | 35 | 2.0 | 4.0 | 0.00 | 0.33 | 0.09 | 76 | 1013.1 |
| 20260507114819 | 49 | 343 | 2.0 | 3.0 | 0.02 | 0.33 | 0.09 | 77 | 1012.9 |
| 20260507113828 | 49 | 5 | 1.0 | 4.0 | 0.02 | 0.33 | 0.09 | 77 | 1013.0 |
| 20260507112840 | 48 | 355 | 0.0 | 2.0 | 0.02 | 0.33 | 0.09 | 77 | 1012.8 |
| 20260507111900 | 48 | 30 | 0.0 | 5.0 | 0.02 | 0.33 | 0.09 | 79 | 1012.7 |
| 20260507110824 | 48 | 355 | 2.0 | 4.0 | 0.02 | 0.33 | 0.09 | 81 | 1012.6 |
| 20260507105841 | 48 | 20 | 0.0 | 0.0 | 0.02 | 0.33 | 0.09 | 81 | 1012.5 |
| 20260507104825 | 48 | 28 | 0.0 | 0.0 | 0.00 | 0.31 | 0.07 | 82 | 1012.6 |
| 20260507103817 | 48 | 12 | 0.0 | 1.0 | 0.00 | 0.31 | 0.07 | 82 | 1012.6 |
| 20260507102829 | 48 | 13 | 1.0 | 3.0 | 0.00 | 0.31 | 0.07 | 82 | 1012.2 |